{"data":{"norad_id":49166,"epoch":"2026-09-20T02:04:08.519808Z","epoch_age_seconds":76926,"freshness":"FRESH","line1":"1 49166U 21082AN  26263.08620972  .00000291  00000+0  32796-4 0  9994","line2":"2 49166  69.9996 145.7196 0002778 270.0821  90.0019 14.97522234276758","mean_motion":14.97522234,"eccentricity":0.0002778,"inclination_deg":69.9996,"raan_deg":145.7196,"arg_perigee_deg":270.0821,"mean_anomaly_deg":90.0019,"bstar":3.2796e-5,"rev_number":27675,"period_min":96.158839401913,"perigee_km":572.62350560371,"apogee_km":576.48642125859,"semimajor_km":6952.6919634312,"source":"CELESTRAK","updated_at":"2026-09-20T09:00:39.252727Z"}}